DW5656 Weather Reports


time (UTC)temp
C
wind
direction
speed
KPH
gust
KPH
rain 1hr
cm
rain 24hr
cm
rain mn
cm
humidity
%
barometer
mb
20260831060840 23 13 3.2 6.4 0.00 0.00 0.00 66 1016.2
20260831055919 23 2 3.2 6.4 0.00 0.00 0.00 67 1016.2
20260831055019 23 355 3.2 6.4 0.00 0.00 0.00 67 1016.1
20260831054119 23 359 4.8 6.4 0.00 0.00 0.00 67 1016.1
20260831053219 23 4 4.8 6.4 0.00 0.00 0.00 67 1015.9
20260831052319 23 10 4.8 6.4 0.00 0.00 0.00 67 1015.8
20260831051419 23 341 3.2 8.0 0.00 0.00 0.00 68 1015.9
20260831050519 23 351 3.2 6.4 0.00 0.00 0.00 68 1015.9
20260831045619 24 351 3.2 4.8 0.00 0.00 0.00 68 1016.0
20260831044719 24 351 3.2 6.4 0.00 0.00 0.00 67 1016.0
20260831043819 24 346 3.2 6.4 0.00 0.00 0.00 67 1015.9
20260831042919 24 313 3.2 6.4 0.00 0.00 0.00 68 1016.0
20260831042019 24 306 3.2 4.8 0.00 0.00 0.00 69 1016.0
20260831041119 24 306 3.2 4.8 0.00 0.00 0.00 69 1016.1
20260831040219 23 299 3.2 6.4 0.00 0.00 0.00 70 1016.1
20260831035319 23 242 1.6 4.8 0.00 0.00 0.00 71 1016.1
20260831034419 23 235 1.6 3.2 0.00 0.00 0.00 72 1016.1
20260831033519 23 232 1.6 3.2 0.00 0.00 0.00 73 1016.1
20260831032619 23 232 0.0 1.6 0.00 0.00 0.00 74 1016.2
20260831031719 23 232 0.0 1.6 0.00 0.00 0.00 74 1016.2
20260831030819 22 232 1.6 3.2 0.00 0.00 0.00 73 1016.2
20260831025919 23 232 1.6 3.2 0.00 0.00 0.00 73 1016.3
20260831025019 23 232 1.6 4.8 0.00 0.00 0.00 73 1016.4
20260831024140 23 231 1.6 4.8 0.00 0.00 0.00 73 1016.4
20260831023240 23 229 1.6 4.8 0.00 0.00 0.00 72 1016.4
20260831022319 23 229 1.6 6.4 0.00 0.00 0.00 72 1016.4
20260831021440 23 229 1.6 4.8 0.00 0.00 0.00 72 1016.3
20260831020518 23 229 1.6 4.8 0.00 0.00 0.00 71 1016.3
20260831015619 23 229 1.6 4.8 0.00 0.00 0.00 71 1016.3
20260831014718 23 229 1.6 3.2 0.00 0.00 0.00 71 1016.3
20260831013818 23 229 1.6 3.2 0.00 0.00 0.00 70 1016.3
20260831012918 23 229 3.2 6.4 0.00 0.00 0.00 70 1016.3
20260831012018 23 232 1.6 6.4 0.00 0.00 0.00 69 1016.3
20260831011118 23 232 1.6 6.4 0.00 0.00 0.00 69 1016.3
20260831010218 23 232 3.2 4.8 0.00 0.00 0.00 68 1016.3
20260831005318 23 227 3.2 8.0 0.00 0.00 0.00 67 1016.2
20260831004418 24 213 1.6 6.4 0.00 0.00 0.00 66 1016.3
20260831003518 24 213 1.6 4.8 0.00 0.00 0.00 64 1016.2
20260831002639 24 202 1.6 4.8 0.00 0.00 0.00 64 1016.3
20260831001718 24 191 3.2 6.4 0.00 0.00 0.00 63 1016.2
20260831000839 25 197 3.2 6.4 0.00 0.00 0.00 62 1016.1
20260830235918 25 181 3.2 6.4 0.00 0.00 0.00 61 1016.1
20260830235018 25 178 3.2 6.4 0.00 0.00 0.00 59 1016.1
20260830234139 25 209 3.2 6.4 0.00 0.00 0.00 59 1016.1
20260830233218 25 209 1.6 4.8 0.00 0.00 0.00 58 1016.1
20260830232318 25 209 0.0 3.2 0.00 0.00 0.00 58 1015.9
20260830231418 25 209 1.6 3.2 0.00 0.00 0.00 58 1015.8
20260830230518 25 209 1.6 3.2 0.00 0.00 0.00 57 1015.8
20260830225618 26 209 1.6 3.2 0.00 0.00 0.00 57 1015.8
20260830224718 26 209 3.2 4.8 0.00 0.00 0.00 57 1015.7
20260830223818 26 209 3.2 4.8 0.00 0.00 0.00 56 1015.7
20260830222918 26 209 3.2 4.8 0.00 0.00 0.00 56 1015.6
20260830222018 26 209 3.2 6.4 0.00 0.00 0.00 55 1015.6
20260830221118 26 212 3.2 6.4 0.00 0.00 0.00 54 1015.6
20260830220218 27 215 3.2 9.7 0.00 0.00 0.00 54 1015.5
20260830215318 27 237 4.8 11.3 0.00 0.00 0.00 53 1015.5
20260830214418 27 230 4.8 11.3 0.00 0.00 0.00 51 1015.3
20260830213539 27 219 3.2 8.0 0.00 0.00 0.00 50 1015.4
20260830212618 28 224 6.4 12.9 0.00 0.00 0.00 50 1015.3
20260830211718 28 249 6.4 12.9 0.00 0.00 0.00 49 1015.3
20260830210818 28 265 6.4 17.7 0.00 0.00 0.00 49 1015.2
20260830205918 28 255 4.8 19.3 0.00 0.00 0.00 49 1015.2
20260830205018 28 222 3.2 8.0 0.00 0.00 0.00 49 1015.3
20260830204118 28 226 4.8 8.0 0.00 0.00 0.00 49 1015.3
20260830203239 28 219 6.4 11.3 0.00 0.00 0.00 49 1015.3
20260830202318 29 217 4.8 11.3 0.00 0.00 0.00 49 1015.3
20260830201417 29 225 4.8 11.3 0.00 0.00 0.00 48 1015.2
20260830200517 30 239 4.8 16.1 0.00 0.00 0.00 47 1014.9
20260830195617 30 236 6.4 12.9 0.00 0.00 0.00 46 1014.9
20260830194717 30 240 8.0 14.5 0.00 0.00 0.00 45 1014.8
20260830193817 30 238 6.4 17.7 0.00 0.00 0.00 44 1014.7
20260830192917 31 229 6.4 14.5 0.00 0.00 0.00 43 1014.6
20260830192018 31 231 4.8 14.5 0.00 0.00 0.00 41 1014.6
20260830191138 31 238 8.0 14.5 0.00 0.00 0.00 40 1014.4
20260830190217 32 230 8.0 16.1 0.00 0.00 0.00 39 1014.3
20260830185317 32 231 6.4 14.5 0.00 0.00 0.00 38 1014.3
20260830184417 32 234 6.4 14.5 0.00 0.00 0.00 37 1014.2
20260830183517 33 240 8.0 16.1 0.00 0.00 0.00 36 1014.3
20260830182617 33 230 9.7 16.1 0.00 0.00 0.00 36 1014.3
20260830181717 33 226 9.7 17.7 0.00 0.00 0.00 36 1014.3
20260830180817 33 232 8.0 17.7 0.00 0.00 0.00 36 1014.2
20260830175917 33 237 9.7 17.7 0.00 0.00 0.00 37 1014.2
20260830175017 33 228 8.0 20.9 0.00 0.00 0.00 37 1014.3
20260830174118 33 222 8.0 17.7 0.00 0.00 0.00 39 1014.3
20260830173238 33 220 8.0 19.3 0.00 0.00 0.00 38 1014.3
20260830172317 34 218 9.7 19.3 0.00 0.00 0.00 37 1014.3
20260830171417 34 229 8.0 19.3 0.00 0.00 0.00 35 1014.3
20260830170539 35 225 8.0 14.5 0.00 0.00 0.00 33 1014.3
20260830165617 35 223 8.0 19.3 0.00 0.00 0.00 32 1014.4
20260830164718 35 221 8.0 19.3 0.00 0.00 0.00 30 1014.4
20260830163817 35 222 9.7 20.9 0.00 0.00 0.00 31 1014.4
20260830162917 34 233 12.9 19.3 0.00 0.00 0.00 31 1014.5
20260830162017 34 242 11.3 27.4 0.00 0.00 0.00 31 1014.5
20260830161117 35 227 8.0 19.3 0.00 0.00 0.00 31 1014.5
20260830160217 35 216 6.4 19.3 0.00 0.00 0.00 31 1014.4
20260830155317 35 210 6.4 16.1 0.00 0.00 0.00 31 1014.4
20260830154417 35 227 6.4 14.5 0.00 0.00 0.00 31 1014.4
20260830153538 35 214 4.8 14.5 0.00 0.00 0.00 32 1014.5
20260830152617 35 174 4.8 16.1 0.00 0.00 0.00 32 1014.6
20260830151717 35 181 4.8 14.5 0.00 0.00 0.00 30 1014.6
20260830150817 35 228 6.4 19.3 0.00 0.00 0.00 31 1014.6
20260830145917 35 178 4.8 19.3 0.00 0.00 0.00 31 1014.7
20260830145017 35 191 4.8 16.1 0.00 0.00 0.00 31 1014.9
20260830144117 34 179 6.4 14.5 0.00 0.00 0.00 32 1015.0
20260830143217 34 179 6.4 16.1 0.00 0.00 0.00 32 1015.2
20260830142317 35 165 4.8 11.3 0.00 0.00 0.00 33 1015.2
20260830141416 35 250 4.8 11.3 0.00 0.00 0.00 34 1015.3
20260830140516 34 245 4.8 12.9 0.00 0.00 0.00 33 1015.5
20260830135616 34 252 4.8 11.3 0.00 0.00 0.00 34 1015.6
20260830134716 34 223 4.8 11.3 0.00 0.00 0.00 33 1015.8
20260830133837 34 197 4.8 11.3 0.00 0.00 0.00 34 1015.8
20260830132916 33 240 6.4 14.5 0.00 0.00 0.00 35 1016.0
20260830132037 33 230 4.8 14.5 0.00 0.00 0.00 35 1016.0
20260830131137 33 163 6.4 9.7 0.00 0.00 0.00 35 1016.1
20260830130216 33 185 6.4 17.7 0.00 0.00 0.00 34 1016.2
20260830125317 33 217 3.2 17.7 0.00 0.00 0.00 34 1016.3
20260830124416 33 269 3.2 6.4 0.00 0.00 0.00 35 1016.4
20260830123516 32 224 4.8 9.7 0.00 0.00 0.00 36 1016.4
20260830122617 32 283 4.8 9.7 0.00 0.00 0.00 37 1016.4
20260830121716 32 146 4.8 11.3 0.00 0.00 0.00 37 1016.5
20260830120816 31 147 3.2 11.3 0.00 0.00 0.00 38 1016.5
20260830115937 32 10 3.2 11.3 0.00 0.00 0.00 38 1016.7
20260830115016 31 296 1.6 6.4 0.00 0.00 0.00 38 1016.7
20260830114116 31 198 3.2 6.4 0.00 0.00 0.00 38 1016.9
20260830113238 31 260 4.8 11.3 0.00 0.00 0.00 39 1016.9
20260830112316 30 253 3.2 9.7 0.00 0.00 0.00 39 1017.0
20260830111416 30 238 3.2 11.3 0.00 0.00 0.00 41 1017.1
20260830110537 30 178 3.2 9.7 0.00 0.00 0.00 42 1017.0
20260830105616 30 268 3.2 9.7 0.00 0.00 0.00 43 1017.1
20260830104737 29 282 3.2 9.7 0.00 0.00 0.00 45 1017.1
20260830103837 29 236 3.2 6.4 0.00 0.00 0.00 44 1017.2
20260830102916 29 137 3.2 8.0 0.00 0.00 0.00 44 1017.2
20260830102016 28 98 3.2 11.3 0.00 0.00 0.00 47 1017.2
20260830101116 28 335 1.6 6.4 0.00 0.00 0.00 48 1017.1
20260830100216 28 357 1.6 4.8 0.00 0.00 0.00 49 1017.2
20260830095316 27 5 3.2 8.0 0.00 0.00 0.00 50 1017.2
20260830094416 27 91 3.2 8.0 0.00 0.00 0.00 51 1017.3
20260830093516 27 84 3.2 9.7 0.00 0.00 0.00 52 1017.3
20260830092616 27 32 1.6 6.4 0.00 0.00 0.00 52 1017.3
20260830091716 26 52 3.2 4.8 0.00 0.00 0.00 53 1017.2
20260830090837 26 71 3.2 6.4 0.00 0.00 0.00 54 1017.3
20260830085916 26 90 1.6 6.4 0.00 0.00 0.00 54 1017.2
20260830085016 26 38 1.6 6.4 0.00 0.00 0.00 55 1017.2
20260830084137 25 14 1.6 4.8 0.00 0.00 0.00 56 1017.3
20260830083216 25 13 1.6 3.2 0.00 0.00 0.00 57 1017.3
20260830082337 24 13 1.6 4.8 0.00 0.00 0.00 59 1017.2
20260830081438 23 12 1.6 4.8 0.00 0.00 0.00 60 1017.3
20260830080515 23 11 3.2 4.8 0.00 0.00 0.00 62 1017.3
20260830075616 22 11 3.2 6.4 0.00 0.00 0.00 62 1017.3
20260830074716 22 9 3.2 6.4 0.00 0.00 0.00 64 1017.3
20260830073815 21 27 4.8 8.0 0.00 0.00 0.00 64 1017.3
20260830072937 21 11 4.8 6.4 0.00 0.00 0.00 65 1017.2
20260830072015 21 34 4.8 6.4 0.00 0.00 0.00 66 1017.1
20260830071115 20 356 4.8 6.4 0.00 0.00 0.00 67 1016.9
20260830070236 20 339 4.8 8.0 0.00 0.00 0.00 68 1016.9
20260830065337 20 8 4.8 8.0 0.00 0.00 0.00 68 1016.7
20260830064415 20 349 3.2 6.4 0.00 0.00 0.00 68 1016.6
20260830063536 20 349 4.8 8.0 0.00 0.00 0.00 68 1016.6
20260830062615 20 357 3.2 8.0 0.00 0.00 0.00 68 1016.6
20260830061715 20 351 3.2 8.0 0.00 0.00 0.00 68 1016.6